Date,TemperatureHighF,TemperatureAvgF,TemperatureLowF,DewpointHighF,DewpointAvgF,DewpointLowF,HumidityHigh,HumidityAvg,HumidityLow,PressureMaxIn,PressureMinIn,WindSpeedMaxMPH,WindSpeedAvgMPH,GustSpeedMaxMPH,PrecipitationSumIn
2013-4-1,49.5,42.2,33.4,33.1,16.7,4.7,60,37,19,29.14,28.82,0,0,0,0.00
2013-4-2,50.5,36.2,23.2,14.0,6.3,-0.7,45,30,16,29.29,29.14,0,0,0,0.00
2013-4-3,57.6,38.5,23.4,11.3,4.3,-2.1,40,25,14,29.44,29.29,0,0,0,0.00
2013-4-4,64.4,45.4,32.4,14.5,7.1,-0.2,31,22,12,29.38,29.03,0,0,0,0.00
2013-4-5,64.6,46.8,32.2,23.2,12.5,4.5,41,26,13,29.17,29.03,0,0,0,0.00
2013-4-6,71.6,49.1,0.0,22.0,14.5,0.0,34,26,11,29.29,28.94,0,0,0,0.00
2013-4-7,80.4,63.7,57.0,37.8,26.2,19.9,42,25,12,29.03,28.88,5,2,5,0.00
2013-4-8,74.3,63.6,53.6,43.0,41.1,37.8,64,45,31,29.00,28.88,17,6,17,0.00
2013-4-9,85.1,67.9,53.6,48.1,43.3,37.8,66,44,19,29.09,28.91,22,5,22,0.00
2013-4-10,88.3,72.4,0.0,54.2,48.0,0.0,59,43,23,28.97,28.85,23,6,23,0.00
2013-4-11,67.1,62.0,59.0,57.0,52.1,47.7,82,70,60,28.88,28.58,12,3,12,0.00
2013-4-12,59.0,47.7,41.2,53.7,32.5,23.7,84,57,37,28.94,28.55,17,6,17,0.00
2013-4-13,59.2,47.0,41.0,29.2,25.3,21.3,54,43,29,29.09,28.94,15,5,15,0.00
2013-4-14,77.0,55.4,37.2,39.1,29.2,21.8,56,39,21,29.14,28.91,9,3,9,0.00
2013-4-15,74.3,62.9,51.1,43.7,38.4,28.5,55,41,32,29.06,28.94,11,4,11,0.00
2013-4-16,83.7,64.2,57.0,54.2,49.2,42.1,79,60,32,29.23,28.97,15,5,15,0.00
2013-4-17,80.4,64.5,52.3,56.1,52.1,46.4,83,66,41,29.26,29.00,9,3,9,0.00
2013-4-18,88.9,73.2,61.9,55.6,47.4,34.5,73,45,18,29.00,28.64,24,8,24,0.00
2013-4-19,72.7,50.3,38.8,53.3,31.0,19.5,77,49,31,28.97,28.47,24,8,24,0.00
2013-4-20,55.8,42.2,35.1,26.9,19.6,12.3,68,42,25,29.44,28.97,19,5,19,0.00
2013-4-21,67.1,46.5,30.6,24.6,15.4,5.3,45,31,12,29.59,29.44,10,3,10,0.00
2013-4-22,79.7,55.6,35.8,30.5,20.5,12.1,41,28,10,29.44,29.14,8,2,8,0.00
2013-4-23,75.4,60.5,45.1,39.6,31.7,25.6,48,35,22,29.20,28.88,14,4,14,0.00
2013-4-24,64.8,51.8,37.4,48.3,35.4,25.6,72,55,36,29.23,28.79,15,5,15,0.00
2013-4-25,62.6,46.8,34.9,30.7,24.8,13.0,75,46,19,29.41,29.23,16,5,16,0.00
2013-4-26,70.2,50.4,32.4,27.2,20.3,14.3,55,34,14,29.53,29.38,7,1,7,0.00
2013-4-27,77.2,56.7,38.7,39.9,28.8,22.7,54,37,15,29.41,29.09,14,2,14,0.00
2013-4-28,74.3,60.4,55.9,53.5,47.1,39.4,73,62,40,29.09,28.85,12,3,12,0.00
2013-4-29,67.6,60.7,54.5,52.0,47.8,43.1,80,64,45,29.03,28.91,7,2,7,0.00
2013-4-30,88.9,77.0,60.3,49.6,43.4,37.9,51,32,19,29.17,29.03,9,2,9,0.00